TimeCST,TemperatureF,Dew PointF,Humidity,Sea Level PressureIn,VisibilityMPH,Wind Direction,Wind SpeedMPH,Gust SpeedMPH,PrecipitationIn,Events,Conditions,WindDirDegrees,DateUTC
12:52 AM,36.0,26.1,67,29.71,10.0,WNW,16.1,-,N/A,,Overcast,290,2014-01-11 06:52:00
1:52 AM,35.1,28.9,78,29.71,10.0,WNW,12.7,-,N/A,,Overcast,290,2014-01-11 07:52:00
2:52 AM,33.1,27.0,78,29.74,10.0,West,11.5,-,N/A,,Clear,280,2014-01-11 08:52:00
3:52 AM,32.0,26.1,79,29.75,10.0,WNW,16.1,-,N/A,,Clear,290,2014-01-11 09:52:00
4:52 AM,32.0,26.1,79,29.79,10.0,WNW,15.0,-,N/A,,Clear,290,2014-01-11 10:52:00
5:52 AM,32.0,25.0,75,29.83,10.0,WNW,15.0,-,N/A,,Clear,290,2014-01-11 11:52:00
6:52 AM,28.9,24.1,82,29.87,10.0,West,12.7,-,N/A,,Clear,280,2014-01-11 12:52:00
7:52 AM,27.0,23.0,85,29.87,10.0,WNW,9.2,-,N/A,,Clear,300,2014-01-11 13:52:00
8:52 AM,28.9,23.0,78,29.89,10.0,WNW,8.1,-,N/A,,Clear,290,2014-01-11 14:52:00
9:52 AM,36.0,26.1,67,29.89,10.0,West,9.2,-,N/A,,Clear,270,2014-01-11 15:52:00
10:52 AM,42.1,27.0,55,29.88,10.0,WNW,8.1,-,N/A,,Clear,300,2014-01-11 16:52:00
11:52 AM,44.1,26.1,49,29.86,10.0,West,16.1,-,N/A,,Clear,280,2014-01-11 17:52:00
12:52 PM,46.0,26.1,46,29.81,10.0,West,15.0,-,N/A,,Clear,260,2014-01-11 18:52:00
1:52 PM,48.9,23.0,36,29.76,10.0,West,13.8,-,N/A,,Clear,270,2014-01-11 19:52:00
2:52 PM,50.0,24.1,36,29.73,10.0,SW,10.4,-,N/A,,Clear,220,2014-01-11 20:52:00
3:52 PM,50.0,21.9,33,29.70,10.0,SW,15.0,-,N/A,,Clear,230,2014-01-11 21:52:00
4:52 PM,46.0,23.0,40,29.69,10.0,SSW,10.4,-,N/A,,Clear,200,2014-01-11 22:52:00
5:52 PM,42.1,24.1,49,29.67,10.0,South,10.4,-,N/A,,Clear,190,2014-01-11 23:52:00
6:52 PM,39.9,25.0,55,29.63,10.0,South,8.1,-,N/A,,Clear,190,2014-01-12 00:52:00
7:52 PM,45.0,27.0,49,29.58,10.0,SSW,18.4,-,N/A,,Clear,210,2014-01-12 01:52:00
8:52 PM,43.0,28.0,56,29.56,10.0,SW,13.8,-,N/A,,Clear,220,2014-01-12 02:52:00
9:52 PM,42.1,27.0,55,29.52,10.0,SSW,15.0,-,N/A,,Clear,210,2014-01-12 03:52:00
10:52 PM,43.0,28.0,56,29.49,10.0,SW,13.8,-,N/A,,Clear,220,2014-01-12 04:52:00
11:52 PM,45.0,27.0,49,29.45,10.0,SW,15.0,-,N/A,,Clear,220,2014-01-12 05:52:00